Volver al catálogo

ARIANE 1 DEB

ActivoSSO
NORAD 39107·DEBRIS·🇫🇷 France

Lanzado Feb 22, 1986 desde Guiana Space Centre

Loading…

Próximos Pases (próximas 24 horas)

TLE

ActualizadoSource: Space-Track

Época: Sep 14, 2026, 07:43 UTC

1 39107U 86019VV  26257.32180682  .00000600  00000-0  31824-3 0  9993
2 39107  98.6458 277.8134 0150530 112.4888 249.2300 14.11390408677304

Sigue ARIANE 1 DEB en tiempo real con AllMySat

Download on the App Store